Tracking 29892 objects as of 21-Nov-2024
HD Live streaming from Space Station
objects crossing your sky now

STARLINK-5767

Track STARLINK-5767 now!
10-day predictions
STARLINK-5767 is classified as:


NORAD ID: 55586
Int'l Code: 2023-020T
Perigee: 565.4 km
Apogee: 567.1 km
Inclination: 43.0 °
Period: 95.8 minutes
Semi major axis: 6937 km
RCS: Unknown
Launch date: February 12, 2023
Source: United States (US)
Launch site: AIR FORCE EASTERN TEST RANGE (AFETR)
Your satellite tracking list
Your tracking list is empty




NASA's NSSDC Master Catalog

Two Line Element Set (TLE):
1 55586U 23020T   24325.65651512 -.00000860  00000-0 -48641-4 0  9996
2 55586  43.0052  60.2984 0001270 266.2042  93.8655 15.02527864 97615
Source of the keplerian elements: AFSPC